Wind_Speed
96 94 95 95 95 93 91 88 86 85 84 82 80 77 72 69 68 63 59 62 61 59 61 63 63 64 64 64 62 60 58 57 56 54 53 53 52 52 54 55 55 54 53 53 54 54 55 55 56 56 57 58 57 57 56 55 54 53 53 54 55 55 55 53 51 50 48 46 42 39 40 45 52 55 54 53 54 55 55 55 54 54 57 56 53 51 49
98 97 98 98 97 96 94 92 89 88 87 84 82 79 76 74 72 67 65 66 63 61 62 63 64 65 65 64 62 60 58 58 57 55 54 54 54 54 55 56 56 56 55 55 56 56 57 58 58 59 59 60 59 59 58 57 57 56 56 56 57 56 56 53 51 50 47 44 39 33 31 37 48 53 54 55 57 58 57 56 56 58 59 56 53 52 51
100 99 99 100 99 97 96 94 92 90 88 86 83 81 79 77 74 70 69 68 64 62 63 63 65 66 65 64 62 60 59 59 58 56 56 56 56 56 57 57 57 57 56 55 56 57 58 60 60 61 62 62 62 62 61 60 60 59 58 58 58 57 56 54 52 51 48 44 39 32 28 31 40 47 53 58 60 59 57 55 56 59 59 54 50 50 50
100 100 100 100 100 99 98 96 94 92 90 87 84 81 79 77 74 72 70 67 63 63 64 65 65 66 65 64 63 61 61 60 59 58 57 57 57 58 58 58 58 57 56 56 56 58 60 61 62 63 64 65 66 66 65 64 63 62 61 60 59 58 56 54 52 51 49 46 41 35 30 31 39 48 56 61 62 60 58 57 59 61 58 52 48 48 51
98 100 101 101 102 102 100 97 94 92 90 87 84 82 79 77 75 74 71 66 63 65 67 67 67 67 66 65 64 62 62 61 60 59 58 58 58 59 59 60 58 57 56 56 56 58 61 63 63 64 65 67 68 69 69 68 67 65 64 62 60 58 56 53 52 50 49 48 45 41 38 39 45 51 55 59 61 61 60 61 63 63 60 56 53 52 54
96 99 102 103 104 104 99 94 92 91 90 88 86 83 80 78 77 75 71 66 65 66 68 67 68 68 67 65 64 63 62 61 60 59 59 59 60 61 62 62 60 58 57 57 57 60 63 64 64 65 67 69 69 70 70 70 69 68 66 64 61 58 56 54 52 50 50 51 50 49 47 47 49 51 53 56 57 58 60 61 63 63 63 61 56 53 55
94 98 102 104 104 101 96 92 91 92 92 91 89 86 83 81 79 75 71 68 66 66 68 69 69 69 68 66 64 62 61 61 60 60 61 62 62 63 64 63 60 59 58 59 60 63 65 65 65 67 69 70 70 70 70 70 70 68 67 65 62 59 57 55 54 53 53 54 54 55 54 54 54 54 54 55 57 57 58 58 59 59 59 57 52 50 54
92 95 100 103 102 98 95 93 93 94 93 92 91 88 85 82 79 76 72 70 68 67 69 70 72 71 69 67 65 63 62 62 62 63 64 64 64 66 65 63 61 61 62 62 63 64 65 66 68 70 71 71 70 70 70 69 68 67 65 64 62 60 59 58 56 56 57 57 58 59 60 60 59 57 56 56 57 58 57 55 55 54 52 52 53 54 57
90 93 97 101 100 97 95 94 94 94 93 92 91 89 86 83 81 78 75 72 70 69 70 72 74 73 71 68 66 65 64 63 64 66 67 67 67 68 66 64 64 65 65 65 65 66 67 69 71 72 71 71 70 70 69 68 67 65 64 63 62 61 61 61 60 59 60 60 61 62 63 63 61 59 58 57 57 57 55 51 49 49 49 52 56 59 61
87 91 95 98 98 96 95 94 93 93 93 91 91 90 87 85 82 80 77 75 72 70 71 74 74 73 72 70 68 67 66 66 68 69 70 70 70 69 68 67 67 68 68 67 67 68 69 70 72 73 71 71 70 69 68 67 65 64 63 63 62 63 64 64 64 63 63 63 64 65 65 64 63 61 59 58 56 53 49 47 48 50 51 54 60 66 68
84 88 92 96 97 95 95 94 93 93 93 92 92 91 89 86 83 82 80 77 74 73 73 73 74 73 72 70 69 69 68 69 71 72 72 72 72 71 70 69 69 69 70 70 69 69 70 72 73 72 71 70 69 68 67 66 65 65 64 63 64 65 67 68 67 66 66 66 67 67 67 66 64 62 60 58 55 52 51 53 55 55 56 58 62 66 68
81 85 89 93 95 94 94 94 93 93 93 93 93 91 89 85 84 83 82 79 77 75 74 73 74 73 72 70 70 70 70 71 72 72 73 73 73 72 71 71 71 71 71 71 71 71 72 72 72 72 71 70 68 67 66 66 65 65 65 65 67 68 70 71 71 69 69 69 68 68 68 66 64 63 60 57 54 52 53 57 59 60 61 64 66 68 70
78 82 85 89 91 92 92 93 93 93 94 93 92 90 87 85 84 84 82 80 78 77 75 74 74 73 72 71 70 70 71 72 73 72 73 73 73 73 73 72 71 71 71 72 72 72 72 72 72 71 70 69 68 67 66 66 66 66 67 68 70 71 73 73 73 72 72 71 70 69 68 67 67 64 59 55 52 51 52 56 61 64 66 68 69 71 73
74 78 82 85 87 89 91 92 93 93 93 91 90 89 87 86 85 84 82 80 79 78 77 76 75 74 73 72 72 72 72 72 72 72 73 73 74 74 73 72 72 72 72 72 72 71 72 72 72 71 70 69 68 67 67 67 67 69 70 71 72 73 74 74 75 74 73 71 70 70 70 69 66 61 57 54 53 53 55 57 61 65 69 71 73 74 75
71 75 78 81 83 86 88 90 92 92 91 90 89 89 88 86 85 84 82 80 79 78 78 77 75 74 74 73 73 73 72 72 72 73 73 73 74 74 74 73 73 72 72 72 71 71 71 71 71 70 70 69 68 68 68 69 70 71 71 72 73 74 75 76 75 73 72 71 72 72 70 66 62 60 60 60 58 57 58 59 60 62 66 70 74 76 78
68 72 74 77 79 82 86 88 90 90 90 89 89 88 88 87 85 83 82 81 79 79 78 76 76 75 76 76 75 74 73 73 73 73 74 74 75 75 75 75 73 72 70 69 66 67 70 71 70 70 71 71 71 70 71 71 71 72 73 74 74 75 75 74 73 71 72 72 72 70 66 63 63 64 65 64 63 62 61 61 60 60 61 65 70 74 77
64 67 69 71 75 78 82 86 88 89 89 89 88 87 87 87 85 83 82 80 79 78 76 75 75 76 76 76 75 74 74 74 74 74 75 75 76 76 75 75 73 71 70 67 63 63 66 69 69 70 71 72 73 72 71 72 72 73 74 74 74 73 73 72 72 72 73 73 72 69 67 66 66 67 66 66 66 66 65 63 60 56 55 57 62 66 70
61 62 63 63 66 72 78 82 85 87 87 88 87 87 87 86 84 83 82 80 79 78 76 74 74 75 76 75 75 74 75 75 75 75 75 75 75 75 74 74 72 70 69 68 67 67 68 70 72 73 73 73 73 72 72 73 74 73 73 72 72 71 71 72 73 74 74 73 72 70 68 68 68 68 67 67 67 65 64 63 61 58 55 55 57 60 62
57 59 61 58 55 59 68 76 81 84 85 86 86 86 85 85 84 83 82 80 78 77 76 75 74 75 75 75 74 74 75 76 75 75 74 74 74 74 73 73 71 70 69 70 71 71 72 73 75 74 73 73 73 72 73 74 74 73 72 72 72 72 73 74 74 73 72 71 71 70 68 68 68 67 67 67 66 65 65 65 64 63 62 61 60 60 61
53 56 61 60 53 50 54 62 71 78 82 84 84 84 84 84 83 82 81 80 78 77 76 75 75 75 74 74 74 74 74 74 74 73 73 73 73 73 73 73 72 72 72 73 72 72 74 75 76 75 74 74 73 73 73 75 75 74 74 74 74 75 76 76 75 73 71 71 70 69 68 68 68 68 67 67 67 67 68 68 67 66 65 64 64 65 67
52 50 53 57 57 53 50 50 56 64 73 79 80 81 82 82 81 81 80 78 77 77 76 76 76 75 75 74 75 74 74 73 73 73 73 73 73 74 74 74 74 74 74 74 74 74 75 76 76 76 75 75 74 74 74 75 75 75 75 76 76 77 78 78 76 74 73 71 70 69 70 70 69 68 68 68 68 69 70 70 69 68 69 70 70 71 73
50 47 46 48 52 54 52 49 48 52 59 67 72 76 79 79 78 78 78 77 77 76 75 75 76 75 75 75 75 74 74 73 73 73 73 73 74 74 74 74 75 75 75 76 76 76 77 77 77 77 76 76 75 75 74 74 75 76 77 78 79 79 79 78 76 74 73 71 70 70 70 69 69 69 70 70 70 69 69 69 70 70 71 72 73 74 75
50 49 47 44 44 47 49 48 47 46 47 53 60 66 71 74 75 76 75 75 75 74 74 75 76 76 76 75 75 75 74 74 74 73 74 74 74 74 75 75 76 77 78 78 78 78 78 78 77 77 76 75 75 74 74 74 76 77 78 79 80 80 79 78 77 75 73 72 71 70 69 69 69 71 72 73 72 71 71 70 70 71 72 73 74 75 76
52 50 50 48 46 47 47 47 47 46 43 45 50 55 58 61 65 69 71 72 72 69 66 65 68 72 75 76 76 75 75 74 74 74 74 75 75 76 76 77 77 78 80 80 79 79 78 77 77 76 75 74 74 74 74 75 77 78 78 79 80 80 79 78 77 76 75 73 72 70 70 71 72 74 76 76 76 75 74 73 73 74 75 76 77 78 79
55 53 53 53 52 51 50 50 50 50 48 46 46 48 50 50 50 52 56 61 64 65 59 52 50 56 64 70 74 74 74 74 75 75 76 77 78 78 78 79 79 80 80 79 78 77 76 76 76 75 74 74 74 74 75 76 77 77 78 79 79 79 79 78 77 76 75 74 73 72 73 74 75 77 78 79 79 78 76 76 76 76 76 77 78 79 80
58 57 55 54 55 56 55 55 55 55 55 54 50 48 50 51 51 50 49 50 54 59 61 59 56 56 60 65 70 72 73 74 75 76 76 77 78 78 79 79 79 79 78 77 76 76 75 75 74 74 74 75 75 76 76 76 76 77 77 78 78 78 78 77 77 76 75 74 74 75 76 77 78 80 81 82 82 81 80 79 79 79 79 80 81 82 83
61 60 58 56 56 56 56 57 57 57 57 59 59 56 55 55 57 59 59 57 57 59 63 66 66 65 65 66 68 70 72 73 74 74 75 75 76 76 76 76 76 77 78 78 77 76 75 74 74 74 75 76 76 76 76 76 76 76 77 78 78 78 78 77 76 76 75 75 77 78 78 79 81 83 84 85 86 86 86 86 85 85 85 86 87 88 89
64 62 62 60 58 58 58 58 58 57 55 56 57 59 60 60 61 62 64 65 65 66 68 69 70 70 69 67 67 67 68 69 70 71 73 74 75 76 76 77 78 79 79 78 77 76 75 75 75 75 76 76 76 76 76 76 76 76 77 78 78 78 78 77 76 76 76 78 79 80 80 82 83 85 87 89 90 91 91 91 91 91 90 91 91 91 90
68 64 62 62 63 64 63 60 59 58 57 56 56 56 58 61 62 63 65 67 68 70 71 72 73 74 75 74 74 73 73 73 73 74 75 76 78 79 79 79 79 78 77 76 76 75 75 75 75 75 75 75 76 76 76 76 76 77 77 78 78 78 78 77 77 77 78 79 80 81 82 84 86 89 91 93 94 95 95 94 94 93 92 91 90 88 86
69 68 65 64 66 69 68 65 64 64 64 64 64 62 60 59 60 62 64 66 68 70 71 72 72 73 75 77 79 79 79 80 80 79 79 79 79 78 78 77 76 75 75 75 75 76 76 76 75 75 75 75 76 76 77 77 78 78 78 79 79 79 78 78 78 78 80 81 82 84 85 88 90 93 95 96 96 95 94 92 91 89 88 86 85 84 83
65 70 70 68 67 69 71 70 70 71 71 71 70 69 66 64 63 64 65 65 66 67 69 71 71 71 73 76 77 78 79 79 79 78 77 76 74 73 73 72 73 74 74 75 76 76 76 76 75 74 74 75 76 77 77 78 78 79 79 79 79 79 79 79 79 80 82 84 86 88 90 92 94 94 94 93 91 90 88 86 84 83 82 81 81 81 82
63 66 69 69 67 67 70 73 74 74 75 74 74 73 72 70 69 69 68 69 69 69 70 71 71 72 72 73 73 72 73 73 73 73 72 71 70 70 71 72 74 75 75 76 76 76 76 76 75 74 75 76 77 77 77 77 77 78 78 78 78 79 79 80 82 84 87 89 91 92 93 93 93 91 89 87 85 83 81 80 80 80 80 81 81 83 85
67 64 65 66 65 64 67 72 76 77 78 78 79 79 79 78 76 74 73 74 74 74 74 73 72 72 71 70 70 70 70 71 71 70 70 70 71 71 71 72 73 74 74 74 75 75 76 76 76 75 76 77 77 77 76 75 75 76 77 77 78 79 80 82 85 88 90 92 93 92 91 90 89 86 83 81 79 78 78 79 80 81 82 84 85 87 88
72 69 67 67 66 64 63 65 70 76 80 82 83 83 82 80 78 77 77 78 78 77 75 73 72 71 71 70 70 70 70 71 70 70 70 70 70 70 70 70 71 72 72 73 74 75 76 77 77 77 77 77 77 75 74 74 75 76 77 78 79 81 83 85 88 89 90 90 89 87 86 85 83 81 79 78 78 79 80 82 84 85 86 87 89 90 91
72 72 71 70 71 70 68 65 65 70 75 80 83 84 84 82 81 80 80 79 79 77 76 74 73 73 72 72 71 71 70 70 70 69 69 68 68 68 69 70 71 71 72 73 74 75 76 77 77 77 77 76 75 74 74 74 75 77 79 80 82 84 85 87 87 87 86 85 83 82 82 82 81 80 80 81 82 83 84 86 87 88 89 90 91 91 92
70 72 73 72 72 73 74 72 69 69 69 70 72 74 76 79 81 82 82 81 80 78 76 75 74 73 72 71 70 69 69 69 69 69 68 68 68 69 70 71 71 72 73 74 74 74 75 75 74 74 74 74 74 74 75 75 77 79 82 83 84 84 84 84 83 82 81 80 80 81 82 83 83 84 85 86 87 87 88 89 90 91 91 92 92 92 92
72 70 70 70 70 72 74 74 72 71 70 69 67 67 68 70 72 75 77 79 79 79 77 75 73 72 70 69 69 69 69 70 70 69 69 69 69 70 71 71 72 73 73 73 73 73 73 73 73 73 73 74 75 76 77 78 79 80 81 81 80 80 79 79 79 79 80 80 81 83 84 85 86 88 89 90 91 91 91 92 92 93 93 92 92 91 89
78 72 67 66 67 70 73 73 71 69 68 65 62 60 59 59 61 63 64 67 70 71 71 71 69 68 68 68 68 69 69 69 69 69 69 69 70 71 71 72 72 73 72 72 72 72 72 72 72 73 73 74 76 77 77 77 76 76 76 76 76 77 76 76 78 80 82 84 85 86 88 89 90 91 92 93 94 94 94 94 94 93 92 90 88 86 83
79 76 71 69 68 69 70 71 72 70 69 65 62 58 57 56 57 58 59 60 62 63 64 64 64 64 65 65 66 67 67 67 67 68 68 69 70 71 72 72 72 72 72 72 71 71 70 71 71 72 73 73 73 74 73 73 72 72 73 73 75 76 77 78 80 82 84 85 87 89 90 92 93 94 95 96 96 96 95 94 92 89 87 84 80 77 73
76 77 76 75 74 73 73 73 73 72 72 70 67 65 63 62 61 60 60 60 61 62 63 64 64 65 66 66 66 66 66 66 66 67 68 69 70 71 71 71 71 70 69 69 68 68 68 69 69 70 70 70 70 70 70 70 71 72 73 74 76 77 79 80 82 83 85 87 88 90 92 93 95 95 96 96 95 93 91 88 84 80 77 73 70 66 64
70 73 75 77 78 78 78 78 77 76 75 74 71 69 68 66 64 63 64 65 66 67 67 66 66 66 66 65 65 65 65 66 67 68 68 69 69 68 67 67 66 65 65 65 66 66 66 67 67 67 68 68 69 70 71 72 73 74 75 77 78 79 81 82 84 85 87 89 91 92 94 95 95 95 93 91 89 86 82 78 74 70 67 64 62 60 59
61 64 68 72 75 78 79 81 80 79 78 77 75 74 73 71 70 70 70 69 67 66 65 64 63 64 64 64 65 65 66 66 66 66 66 65 64 64 63 63 63 63 63 64 65 65 66 66 67 68 69 70 71 72 73 74 75 76 78 79 80 82 83 85 87 88 90 91 92 93 94 93 92 90 87 83 80 77 73 69 65 63 61 60 59 58 58
58 58 58 61 65 69 74 79 80 78 75 75 75 75 74 72 70 69 67 66 64 63 62 62 62 63 63 63 64 64 64 64 63 63 62 62 62 62 62 62 63 63 64 65 66 67 68 69 70 71 72 73 74 75 76 77 78 79 80 82 83 85 86 88 89 90 91 91 91 91 90 88 85 82 78 75 72 68 65 63 62 61 60 59 58 57 55
57 56 55 56 57 59 63 67 68 68 68 68 68 68 67 66 65 65 64 63 63 62 62 62 62 62 62 62 63 63 63 62 62 61 61 62 62 63 63 64 64 65 66 67 68 69 70 71 72 73 74 76 77 78 79 80 82 83 84 85 86 87 88 89 90 89 89 88 86 84 82 80 76 73 70 67 64 62 61 60 59 59 57 56 54 51 50
60 59 59 58 56 55 56 57 57 59 62 63 63 63 63 62 62 62 62 62 62 62 61 61 61 61 62 62 62 62 62 62 62 63 63 64 65 65 66 66 67 68 69 70 71 72 73 74 75 76 77 79 80 81 82 84 85 86 86 87 88 88 88 88 87 86 84 82 79 76 73 70 67 64 62 60 58 56 55 54 53 52 51 50 48 47 46
65 65 66 66 64 62 59 57 56 56 58 59 61 62 62 62 61 61 61 61 60 60 60 60 61 61 62 63 63 63 63 64 64 65 66 66 67 68 69 70 71 72 73 74 75 76 77 78 79 80 81 82 83 84 85 86 87 87 87 87 87 87 86 84 82 79 77 74 71 68 64 61 59 56 55 53 52 50 48 47 46 46 46 46 45 44 43
66 67 68 68 68 66 63 60 59 58 57 57 58 59 59 59 59 59 58 58 59 59 60 61 62 63 63 64 64 65 65 66 67 68 68 69 70 71 72 74 75 76 77 78 79 80 80 81 82 82 83 84 85 86 86 87 87 87 87 86 85 83 80 77 74 71 68 65 62 59 56 54 52 50 48 47 46 45 44 43 43 43 43 43 43 42 42
66 67 67 67 67 66 64 63 62 60 59 58 58 59 59 59 58 58 58 58 60 61 62 63 64 64 65 65 66 67 68 69 70 70 71 72 73 75 76 77 79 80 80 81 81 82 82 83 84 84 85 85 86 86 86 86 86 85 84 81 79 76 72 69 66 62 59 57 54 52 50 48 47 45 44 44 44 43 43 42 41 41 41 40 40 41 41
69 69 69 69 68 67 65 64 63 62 61 60 60 60 60 60 60 60 61 61 62 63 64 65 65 66 67 68 68 70 71 72 73 74 75 76 77 78 80 81 82 82 83 83 83 83 84 84 84 85 85 85 85 86 85 84 83 80 77 74 71 67 64 61 57 54 52 50 49 47 46 45 44 43 43 42 42 42 42 42 41 41 40 40 39 40 40
73 72 72 71 70 68 67 66 65 64 63 62 62 61 61 61 62 62 63 64 64 65 66 67 68 69 70 71 72 73 74 75 76 77 78 80 81 82 83 83 84 84 84 84 84 84 84 84 85 85 85 85 84 83 81 79 76 72 69 65 62 59 56 53 51 49 48 46 45 45 44 43 43 42 42 41 41 42 42 41 41 41 41 40 40 40 40
71 71 71 70 70 69 68 67 66 65 65 64 64 64 64 65 65 66 67 67 68 69 70 70 71 72 73 74 75 76 77 78 79 80 81 82 83 84 84 84 84 84 84 84 84 84 84 84 84 84 83 81 79 77 74 70 67 63 60 57 54 52 50 49 48 46 45 44 43 42 42 41 41 41 41 41 41 42 42 42 42 43 43 42 42 42 42
69 69 70 70 70 70 70 70 69 69 69 68 68 68 69 69 69 70 70 71 71 72 73 74 74 75 76 76 77 78 79 80 81 82 82 83 83 84 84 84 84 83 83 83 84 84 84 83 82 80 78 75 72 68 65 62 58 55 53 50 49 48 47 46 45 44 44 43 42 41 40 40 40 40 41 41 42 42 43 43 44 44 44 44 44 44 44
Wind_Direction
223 224 226 228 230 230 230 231 232 234 234 235 237 239 239 238 239 238 235 235 235 234 235 237 239 241 243 245 247 248 250 252 253 255 257 259 261 263 265 267 269 271 273 274 276 277 278 279 280 281 282 283 285 286 287 288 289 290 291 291 292 294 295 298 301 303 305 309 315 325 328 318 308 305 304 304 303 300 299 300 301 303 305 304 303 305 306
222 223 225 227 228 229 230 230 231 233 234 234 236 237 238 238 239 237 235 236 237 236 236 238 240 242 244 247 249 250 251 253 254 255 257 259 261 263 265 267 268 270 272 274 275 277 278 279 280 280 281 283 284 285 286 287 288 289 290 291 293 294 296 300 302 303 305 309 314 325 328 312 301 299 298 297 294 293 294 297 299 300 301 301 300 303 306
222 223 225 226 228 229 230 230 230 232 233 234 235 236 238 239 239 239 238 240 241 241 240 241 242 244 246 248 250 251 252 253 255 256 257 259 261 263 264 266 267 269 271 273 274 276 278 279 280 281 282 283 284 285 285 286 288 289 291 292 294 296 298 301 303 303 304 307 310 316 317 307 297 291 286 284 284 288 292 294 294 296 297 299 300 302 305
223 223 225 226 228 228 229 230 231 232 233 234 234 235 237 239 240 240 240 242 243 243 242 243 243 245 247 249 250 251 252 254 256 257 258 259 260 262 263 265 266 268 270 272 274 276 277 278 279 281 283 285 285 286 287 288 289 290 292 294 295 296 298 300 301 301 301 303 305 305 302 294 283 274 271 274 279 285 289 290 291 293 296 299 302 305 308
222 223 224 226 227 228 229 230 231 233 234 235 235 235 236 237 239 239 240 241 241 241 242 244 246 248 249 250 251 252 253 255 256 257 259 260 261 262 263 264 266 267 269 271 273 275 276 277 279 281 283 284 285 287 289 290 291 292 293 294 295 296 297 298 297 298 299 300 300 298 293 286 279 274 273 277 282 286 289 289 290 291 292 295 300 305 309
222 223 225 225 227 228 229 229 231 233 234 235 235 235 235 236 238 239 240 240 239 241 243 246 248 249 250 251 253 254 256 257 259 260 261 262 262 263 263 264 266 267 269 271 272 273 274 276 278 280 281 282 284 286 287 289 290 291 292 293 294 295 295 295 294 295 296 297 296 295 293 290 288 286 285 286 287 288 288 288 288 287 287 291 297 302 303
222 223 225 225 227 229 229 229 230 233 234 234 235 235 234 235 236 238 239 239 239 241 244 246 248 250 252 253 255 256 257 259 260 261 261 262 262 262 263 265 267 268 269 270 271 271 273 276 277 278 279 280 282 284 286 287 288 290 291 292 293 293 293 293 293 294 295 296 296 296 295 294 292 291 290 289 289 288 288 286 285 283 284 288 291 290 288
222 223 225 226 226 227 228 228 229 232 233 234 235 236 235 235 236 237 237 238 239 240 243 246 248 250 252 253 255 256 257 259 260 260 261 261 262 263 264 266 268 268 269 269 270 272 274 275 276 277 278 280 282 283 284 286 287 288 289 290 291 292 292 292 293 294 295 296 296 296 295 294 293 292 292 292 290 288 287 284 281 280 281 281 279 278 278
222 223 225 226 226 226 227 227 228 230 232 234 235 236 236 236 236 236 236 237 238 239 242 244 247 249 251 252 254 255 257 258 259 259 260 261 262 263 265 267 268 268 269 270 272 273 274 275 276 277 278 279 281 282 284 285 286 286 287 288 289 290 291 291 293 294 295 296 295 295 294 294 294 294 293 292 289 289 289 286 280 275 273 273 274 276 277
223 223 224 225 225 225 226 227 228 230 231 233 234 235 236 236 236 236 235 236 236 238 240 243 245 248 250 252 253 255 256 257 258 259 260 261 262 264 265 267 268 269 270 271 272 273 274 275 275 276 278 279 280 282 283 284 284 284 285 287 288 289 290 291 292 294 295 295 294 293 293 294 295 295 294 292 289 287 283 278 271 267 265 269 274 276 276
224 223 223 224 225 224 225 226 227 229 231 232 233 234 235 235 235 236 235 235 235 236 238 241 244 246 249 250 252 254 255 256 257 258 260 261 263 264 265 266 267 269 270 271 271 272 273 273 274 276 277 279 280 281 282 282 283 284 285 287 288 289 290 291 292 293 294 294 293 293 294 295 295 294 293 291 288 281 272 266 264 262 261 264 268 270 271
224 223 223 224 225 224 224 226 227 228 230 231 232 234 235 235 235 236 236 236 235 236 237 239 242 244 246 248 250 252 254 255 256 258 260 261 263 264 265 266 267 268 269 270 270 271 271 272 274 275 277 278 279 280 280 281 282 283 285 286 287 288 290 291 292 293 293 294 294 295 295 295 295 294 292 290 286 277 267 264 264 264 263 263 263 264 265
225 224 223 224 225 225 224 225 226 228 229 231 232 233 234 235 235 236 237 237 236 237 237 238 241 242 244 246 248 250 252 253 255 257 258 260 262 263 263 264 265 266 267 268 269 270 271 272 274 275 276 277 278 278 279 280 281 283 284 285 287 288 290 291 292 293 294 295 295 295 295 295 294 293 291 289 286 277 269 266 266 265 265 265 264 263 263
226 224 223 223 224 225 225 225 226 228 229 230 232 233 234 234 235 236 237 237 237 238 238 238 240 241 243 244 246 247 249 251 254 255 257 258 260 261 262 263 264 264 265 266 268 269 271 273 274 275 275 276 276 277 278 279 280 282 284 285 287 288 289 291 292 294 296 296 296 296 296 295 294 291 290 290 288 282 276 274 271 268 266 265 264 264 264
227 225 223 222 224 225 225 225 227 228 229 230 231 233 233 234 235 236 236 237 238 238 239 240 240 241 242 244 245 246 248 250 252 253 255 256 258 259 259 260 261 263 264 266 268 269 271 272 273 273 274 274 275 276 277 279 281 283 285 286 288 289 290 292 294 295 297 297 297 296 296 295 293 291 290 291 289 285 282 280 278 274 270 267 265 264 265
227 226 224 223 223 225 225 226 227 227 228 229 231 232 233 234 235 236 236 237 238 239 240 241 241 242 242 243 244 246 247 248 250 252 253 254 256 257 258 259 260 262 264 266 268 269 269 270 270 271 273 274 275 276 278 281 283 285 286 288 289 291 292 293 295 296 297 296 296 295 295 294 294 293 294 295 294 292 291 289 286 281 276 271 269 268 268
223 225 225 225 225 226 226 226 227 227 228 229 230 232 233 234 235 236 236 237 238 239 240 241 242 243 244 245 246 246 247 248 249 250 252 253 255 257 258 260 262 263 264 265 265 266 267 269 270 271 273 275 276 278 281 283 285 287 289 290 291 292 293 294 295 296 296 296 296 296 296 296 296 297 298 299 298 298 297 296 293 288 282 276 274 273 273
221 222 222 224 227 228 227 227 227 228 229 230 230 232 233 234 235 236 237 237 238 239 240 241 242 244 245 246 246 247 247 248 249 250 252 254 256 258 259 261 263 264 264 265 264 263 264 267 269 271 274 276 278 281 283 285 287 289 290 291 292 293 293 293 294 295 296 296 297 297 298 298 298 299 299 299 298 298 297 297 295 292 288 284 281 279 278
219 220 218 218 224 228 229 228 228 228 229 230 231 232 233 234 235 236 237 237 238 239 240 241 242 243 245 246 246 247 248 249 251 252 254 255 257 258 260 261 262 263 263 263 264 264 265 267 269 272 275 277 280 283 284 286 288 289 289 290 291 291 291 292 293 294 294 294 295 295 296 296 296 296 297 297 298 298 297 297 296 294 293 292 290 289 288
217 220 218 216 217 223 227 228 229 229 230 231 232 232 234 235 235 236 237 238 238 239 240 241 242 243 245 246 247 248 249 251 252 253 254 255 256 258 259 260 261 262 263 264 265 266 267 269 271 274 276 279 281 283 285 287 288 288 288 289 289 289 290 291 292 292 292 292 293 293 293 294 294 295 297 299 299 298 296 296 295 293 291 291 292 292 293
214 218 220 218 216 219 224 228 230 230 231 231 232 233 234 235 236 237 237 238 239 240 241 242 243 243 244 246 247 249 250 251 252 253 254 255 256 257 259 260 261 262 263 264 265 267 269 271 273 276 278 280 282 284 285 285 285 286 287 287 287 287 289 290 290 291 292 292 292 292 292 292 293 295 297 299 299 298 296 294 293 291 289 289 290 291 291
213 215 217 218 218 219 222 227 230 232 232 232 233 235 235 235 236 237 238 239 239 240 241 243 244 244 245 246 247 249 250 251 252 253 254 255 256 257 258 260 261 263 264 265 266 268 269 272 274 277 279 282 283 284 285 284 284 285 286 286 286 287 288 289 289 290 291 291 291 291 290 291 292 294 297 298 298 297 295 293 291 290 289 289 289 290 291
211 212 213 214 215 215 218 222 226 231 233 233 233 235 237 237 237 237 238 239 240 241 242 244 245 245 245 246 247 248 250 250 251 252 253 254 256 257 258 260 262 263 264 265 267 269 271 273 276 278 280 282 283 284 284 284 285 285 285 285 285 286 287 287 288 290 291 291 291 291 291 292 294 296 298 299 299 298 297 294 293 292 292 292 293 294 294
207 209 210 211 210 209 212 216 220 222 223 226 228 231 234 237 238 239 240 240 240 241 242 244 246 246 245 245 246 248 249 250 250 251 253 254 256 257 259 260 261 263 264 266 268 271 273 275 277 279 281 282 282 283 284 284 284 284 284 284 285 286 286 288 289 291 292 293 292 292 293 294 296 298 299 300 301 301 300 298 297 296 296 296 296 295 295
205 207 209 210 210 209 210 212 215 215 214 216 220 224 227 230 232 234 237 239 239 237 234 232 236 240 242 243 244 245 247 249 250 251 253 254 256 258 260 261 263 264 266 269 271 273 275 277 279 280 281 282 283 283 283 283 283 283 284 284 285 286 288 289 291 292 292 293 293 294 295 296 297 298 300 301 301 301 300 300 299 298 297 296 295 294 294
205 207 210 211 211 211 211 212 214 216 215 214 214 216 219 221 222 223 224 227 230 231 228 226 228 234 238 241 243 244 246 248 250 252 254 256 258 259 261 263 265 266 268 271 273 275 276 278 280 281 281 282 282 282 282 282 282 282 283 284 285 287 288 290 291 291 292 293 293 294 295 296 297 299 301 302 302 302 302 301 300 299 298 297 297 297 297
205 207 210 212 211 212 215 217 217 219 221 221 220 219 219 220 222 224 223 222 222 225 227 228 231 235 238 241 244 245 247 249 251 253 255 256 258 259 261 262 265 267 269 272 274 275 276 277 278 279 279 280 281 281 281 282 282 283 284 285 286 287 288 289 290 291 292 293 293 294 295 296 298 300 301 302 303 303 303 302 301 300 300 299 299 299 299
206 207 209 212 211 211 215 218 220 221 225 228 229 228 227 226 226 227 228 227 227 228 230 232 234 237 239 241 243 245 247 248 250 252 253 255 257 259 261 263 265 268 270 272 273 274 275 276 277 278 279 280 281 281 282 282 283 284 285 285 286 288 289 289 290 290 291 292 292 293 295 296 298 299 301 301 302 302 301 301 300 299 299 298 298 297 297
208 209 211 214 214 212 212 214 218 221 225 227 230 231 232 232 231 230 230 231 232 233 235 237 238 240 242 243 245 246 247 248 250 251 253 255 257 259 262 264 266 268 270 271 273 274 275 277 278 279 280 281 281 282 283 283 284 284 285 285 287 288 289 289 289 290 291 291 292 294 295 296 297 298 299 299 299 298 298 298 298 297 297 296 296 296 296
210 211 212 215 217 216 214 213 214 217 220 223 225 227 228 229 231 231 230 231 233 235 237 239 241 242 244 245 246 248 249 250 252 254 256 258 260 262 264 266 268 269 271 272 274 275 276 277 278 279 280 281 282 282 283 283 284 284 285 286 287 287 288 288 289 290 290 291 292 293 293 294 295 295 296 296 296 296 296 296 296 296 295 295 295 295 296
212 212 213 215 217 219 218 216 217 218 220 221 223 225 225 226 228 230 231 232 233 235 237 239 241 243 245 247 249 251 252 254 256 258 260 262 263 265 267 268 270 271 272 273 275 276 277 277 278 279 280 281 282 282 283 283 284 284 285 285 286 286 287 288 289 290 290 291 292 292 292 293 293 294 294 294 295 296 296 296 295 295 295 295 296 296 297
213 215 215 217 219 222 222 221 221 222 223 223 224 225 226 225 226 228 231 233 234 235 237 239 241 244 247 250 253 256 257 259 261 262 263 264 265 266 268 269 270 272 273 274 275 276 277 278 278 279 280 280 281 282 283 283 283 283 284 284 285 286 288 289 290 290 291 291 292 292 293 293 294 294 295 296 296 296 296 295 295 295 295 296 297 297 297
215 216 216 217 219 222 224 225 225 225 226 226 227 228 229 228 228 229 231 234 236 238 241 243 247 250 253 256 258 260 262 263 264 265 266 266 267 268 269 270 271 273 274 275 277 278 278 279 280 280 280 281 282 282 283 283 283 283 284 285 286 287 289 290 290 290 291 291 292 293 294 294 294 295 296 296 296 295 295 295 295 295 296 296 296 297 297
215 217 218 219 220 222 224 225 226 228 229 229 230 231 231 232 233 233 234 236 239 242 245 249 252 255 257 260 261 262 263 264 265 265 266 267 269 270 270 271 272 273 275 276 277 278 279 279 280 280 281 282 282 282 283 283 284 285 286 287 288 289 289 290 290 291 291 292 293 294 294 293 294 295 295 295 294 293 293 294 295 295 296 296 297 297 297
214 217 219 221 223 224 225 225 225 227 230 232 233 234 234 235 235 236 237 239 242 244 248 251 253 256 258 260 261 262 263 264 264 266 267 268 269 270 271 272 273 274 275 276 277 277 278 279 280 281 281 282 282 283 283 284 285 286 287 288 289 289 290 290 291 291 292 293 293 293 293 293 294 294 294 293 293 293 294 295 295 296 296 297 297 298 298
215 216 219 221 224 226 228 229 230 232 235 237 237 238 238 237 237 238 239 241 244 246 249 252 254 257 258 260 261 261 262 264 265 267 268 269 269 269 271 272 273 274 275 276 277 277 278 279 280 280 281 281 282 283 284 285 286 287 288 289 290 290 291 291 292 292 293 293 292 292 292 293 294 293 293 294 294 295 296 296 297 297 298 298 298 299 299
215 216 218 221 225 228 230 232 234 237 240 242 244 245 245 244 243 243 243 245 246 248 250 253 255 257 258 259 260 261 263 265 266 267 268 268 268 269 271 272 273 274 275 276 276 276 277 277 278 279 280 282 283 284 285 286 287 288 288 289 290 290 291 291 292 291 291 291 291 291 292 292 293 294 294 295 296 297 298 298 298 299 299 299 299 299 299
217 217 218 220 223 227 230 232 234 236 237 239 242 244 246 246 246 247 248 248 249 250 252 254 256 257 258 259 260 262 263 264 265 266 267 267 269 270 271 272 273 274 274 274 274 275 276 277 278 279 281 282 283 284 285 286 287 288 289 289 289 289 290 290 290 290 291 291 292 293 293 294 295 296 297 297 298 298 298 299 299 298 298 298 298 298 299
218 219 220 221 222 226 229 231 233 235 236 237 238 240 243 246 248 250 251 252 252 252 253 255 256 257 258 259 260 261 262 263 264 265 266 267 269 270 270 271 272 272 272 273 274 275 276 277 279 280 281 282 283 284 285 286 287 287 287 287 287 287 288 289 289 290 291 292 293 294 295 296 296 297 297 297 297 297 297 297 297 297 297 297 297 298 299
219 221 222 223 224 226 229 231 233 235 237 239 242 244 247 249 251 252 253 253 254 254 255 256 257 258 259 260 261 261 262 263 265 266 267 267 268 269 270 270 271 272 273 274 275 276 277 278 279 280 281 282 283 283 284 284 284 284 284 285 286 286 287 288 289 290 291 292 293 293 294 294 294 294 295 295 295 296 296 295 295 295 296 296 297 298 298
223 225 226 226 227 229 231 232 235 237 239 241 243 246 248 249 252 254 255 257 257 258 258 258 259 259 259 260 261 261 263 264 265 266 267 268 269 270 270 271 272 273 274 275 276 277 278 279 279 280 281 281 281 281 282 282 283 284 284 285 286 287 288 289 289 290 290 291 291 291 292 292 292 293 293 294 294 294 293 293 294 294 295 295 296 297 298
225 228 231 231 232 233 234 235 237 239 241 243 245 248 251 253 255 257 258 258 258 257 257 257 257 257 258 260 261 262 263 264 265 266 267 268 269 270 271 272 273 274 275 276 276 277 278 278 279 279 279 280 281 281 282 283 284 285 286 286 287 288 288 289 289 289 290 290 290 291 291 291 292 292 292 292 292 291 292 292 293 293 294 295 296 297 298
224 228 232 234 235 236 238 239 239 241 244 246 248 250 252 253 254 255 255 255 255 255 255 256 257 258 259 260 262 263 264 265 266 267 267 268 270 271 272 273 274 275 275 276 277 277 278 279 279 279 280 281 282 283 284 285 285 286 286 287 287 288 288 288 289 289 289 290 290 290 290 290 290 290 290 290 290 290 291 291 292 293 294 295 295 296 297
221 225 228 232 235 239 242 242 242 242 243 244 246 247 249 250 251 251 252 253 253 255 256 257 258 259 260 261 262 263 264 264 265 266 267 269 271 272 273 274 274 275 276 277 277 278 279 279 280 281 282 282 283 284 284 285 286 286 286 287 287 288 288 288 289 289 289 289 289 289 288 288 288 288 288 288 289 289 290 291 292 293 293 294 294 295 297
223 226 229 231 234 239 244 246 244 242 241 242 244 246 248 249 251 251 252 254 255 256 257 258 258 260 261 262 263 263 263 264 266 267 270 271 273 273 274 275 275 276 277 278 279 279 280 280 281 282 282 283 283 284 284 285 285 286 286 287 287 288 288 288 288 288 288 288 287 287 286 286 286 286 286 287 288 289 290 290 291 291 292 293 294 296 297
229 231 233 235 237 240 244 247 248 247 246 246 247 248 250 251 252 253 254 255 256 256 257 259 260 262 263 264 264 264 264 266 268 270 272 273 274 274 275 276 276 277 278 279 279 280 281 281 281 282 283 283 283 284 284 285 285 286 287 287 288 288 288 288 287 287 287 286 286 285 285 285 285 285 285 286 286 287 288 289 289 290 291 293 294 295 296
231 234 237 239 240 242 245 247 250 251 250 250 250 251 252 253 254 254 255 256 257 258 260 262 263 264 264 265 265 266 266 268 270 271 272 273 274 275 276 276 277 277 278 279 279 280 281 281 282 282 283 283 284 285 285 286 287 287 287 288 288 287 287 287 286 286 286 285 285 284 284 285 285 285 285 285 286 286 287 288 289 289 290 292 293 294 295
232 235 237 240 242 244 246 248 250 252 252 253 254 255 255 255 256 257 258 259 260 262 264 264 264 265 265 266 266 267 268 270 271 272 273 274 275 275 276 277 277 278 278 279 280 281 281 282 283 283 284 285 285 286 286 287 287 287 287 287 287 286 286 286 285 285 285 284 284 284 284 285 285 285 286 286 287 287 288 288 288 288 289 290 291 293 294
234 236 239 242 244 246 248 250 251 252 254 255 257 258 258 259 260 261 261 262 263 264 265 265 265 266 266 267 268 269 270 271 272 273 273 274 275 276 277 277 278 279 279 280 281 281 282 283 283 284 284 285 285 286 286 287 287 286 286 286 285 285 285 284 284 284 283 283 283 283 284 284 285 285 286 286 286 287 287 288 288 288 289 289 290 291 292
236 238 241 243 245 247 249 250 251 253 254 256 258 259 260 261 262 262 263 263 264 264 265 266 266 267 268 268 269 270 271 272 272 273 274 275 276 276 277 277 278 279 280 280 281 281 282 282 283 284 284 285 285 285 285 285 285 285 284 284 284 283 283 282 282 281 281 281 281 281 282 283 283 284 285 285 285 286 287 288 289 289 290 290 291 291 292
237 239 241 243 245 247 248 249 250 252 253 255 257 259 260 261 262 262 263 263 264 264 265 266 267 267 268 269 270 271 271 272 273 274 275 276 276 277 278 278 279 279 280 281 281 282 282 283 284 284 285 285 285 285 285 285 284 284 283 282 281 281 280 279 279 278 278 278 279 279 280 281 283 284 285 285 286 287 288 289 290 290 291 291 292 292 292
239 241 242 244 245 247 249 250 251 253 255 256 258 259 260 261 262 262 263 264 264 265 266 266 267 268 268 269 269 270 271 272 273 274 275 276 277 277 278 279 279 280 280 281 282 282 283 284 284 285 285 285 285 285 284 284 283 282 281 280 279 278 278 277 277 278 278 278 279 279 280 281 282 283 284 286 287 288 289 289 290 291 292 292 292 293 293
Height
10774 10778 10779 10781 10786 10792 10799 10804 10810 10816 10822 10828 10833 10842 10852 10855 10858 10870 10874 10870 10874 10879 10877 10876 10878 10878 10878 10880 10882 10886 10889 10891 10893 10896 10897 10898 10899 10899 10899 10898 10899 10901 10902 10902 10901 10900 10899 10898 10898 10898 10896 10896 10896 10896 10896 10896 10896 10896 10896 10894 10893 10892 10890 10891 10892 10890 10889 10890 10891 10891 10889 10882 10873 10866 10862 10859 10856 10854 10853 10850 10847 10845 10845 10843 10841 10839 10836
10763 10766 10766 10769 10774 10780 10786 10793 10799 10804 10811 10820 10827 10835 10841 10843 10851 10860 10860 10860 10868 10872 10870 10871 10871 10870 10872 10875 10878 10882 10885 10886 10888 10891 10893 10893 10894 10894 10894 10893 10894 10895 10897 10897 10895 10894 10893 10892 10891 10890 10889 10889 10889 10889 10889 10888 10888 10889 10889 10887 10886 10886 10885 10885 10885 10884 10884 10886 10888 10891 10892 10888 10877 10865 10858 10854 10850 10848 10848 10846 10841 10839 10840 10838 10836 10834 10831
10752 10756 10757 10759 10764 10770 10776 10783 10790 10795 10801 10811 10819 10826 10831 10836 10844 10851 10852 10856 10865 10867 10865 10865 10864 10864 10868 10870 10873 10877 10879 10880 10882 10885 10887 10888 10888 10888 10888 10888 10889 10890 10891 10891 10890 10888 10886 10885 10883 10882 10881 10881 10880 10880 10881 10881 10881 10881 10881 10880 10880 10879 10878 10879 10878 10877 10877 10879 10883 10886 10888 10887 10880 10869 10856 10846 10842 10842 10843 10841 10837 10835 10835 10834 10832 10829 10827
10742 10747 10748 10751 10756 10760 10765 10773 10781 10787 10793 10802 10812 10819 10825 10830 10838 10842 10845 10854 10862 10861 10857 10857 10857 10859 10862 10865 10868 10870 10872 10874 10876 10878 10880 10882 10882 10881 10881 10882 10883 10884 10885 10885 10884 10882 10880 10878 10876 10875 10874 10873 10870 10869 10871 10871 10872 10872 10873 10872 10872 10871 10872 10872 10871 10871 10871 10873 10876 10879 10881 10879 10873 10862 10850 10840 10836 10837 10837 10836 10833 10830 10828 10827 10826 10823 10820
10734 10737 10738 10743 10744 10746 10754 10766 10776 10783 10789 10796 10803 10810 10817 10823 10828 10832 10840 10851 10856 10851 10847 10850 10852 10853 10856 10859 10861 10863 10865 10867 10869 10871 10873 10874 10874 10874 10874 10875 10876 10878 10879 10879 10879 10877 10873 10871 10870 10870 10868 10866 10862 10861 10861 10861 10861 10862 10863 10864 10864 10864 10865 10866 10866 10866 10866 10867 10868 10869 10870 10868 10861 10855 10849 10842 10837 10835 10833 10830 10829 10825 10821 10819 10818 10816 10813
10725 10726 10727 10731 10731 10735 10752 10767 10775 10778 10782 10787 10793 10801 10809 10814 10818 10825 10835 10844 10846 10843 10842 10844 10845 10846 10849 10852 10855 10857 10859 10860 10863 10865 10866 10867 10867 10867 10866 10867 10870 10872 10873 10873 10873 10870 10867 10865 10865 10865 10862 10859 10857 10857 10856 10854 10854 10854 10855 10855 10857 10858 10859 10859 10861 10861 10861 10860 10860 10859 10858 10857 10853 10850 10846 10841 10836 10833 10829 10825 10823 10820 10816 10814 10813 10811 10807
10714 10714 10716 10720 10725 10737 10755 10766 10768 10769 10772 10777 10782 10789 10797 10803 10809 10818 10827 10834 10838 10838 10837 10837 10838 10840 10843 10846 10849 10852 10853 10854 10857 10858 10858 10858 10859 10859 10858 10860 10864 10866 10866 10866 10865 10863 10861 10861 10860 10858 10855 10854 10853 10853 10851 10850 10849 10848 10848 10848 10850 10851 10851 10852 10853 10854 10854 10853 10851 10849 10847 10846 10845 10843 10840 10836 10832 10828 10824 10819 10815 10814 10813 10810 10807 10803 10798
10703 10706 10708 10712 10722 10737 10749 10754 10757 10759 10762 10767 10773 10780 10789 10796 10803 10811 10819 10825 10829 10831 10831 10830 10830 10832 10835 10839 10843 10845 10847 10849 10850 10850 10849 10850 10851 10850 10852 10855 10858 10859 10858 10858 10858 10857 10856 10855 10852 10850 10849 10849 10848 10847 10846 10845 10844 10843 10843 10843 10843 10843 10843 10844 10845 10846 10846 10845 10843 10840 10838 10836 10836 10834 10833 10830 10825 10821 10818 10814 10809 10807 10806 10802 10797 10794 10790
10693 10698 10701 10706 10717 10730 10738 10744 10748 10750 10754 10761 10766 10773 10782 10789 10795 10802 10809 10814 10819 10823 10824 10822 10822 10824 10828 10832 10836 10838 10841 10842 10842 10842 10841 10842 10843 10843 10846 10849 10850 10850 10850 10851 10851 10851 10849 10847 10844 10843 10843 10843 10842 10841 10840 10839 10838 10838 10837 10837 10836 10836 10835 10835 10837 10838 10838 10837 10835 10832 10830 10827 10826 10825 10824 10822 10817 10814 10813 10810 10804 10800 10797 10793 10790 10787 10785
10683 10689 10693 10698 10709 10723 10731 10736 10741 10744 10747 10753 10758 10763 10771 10779 10787 10793 10798 10804 10809 10813 10814 10814 10815 10818 10821 10825 10829 10831 10834 10835 10834 10833 10833 10834 10836 10837 10840 10842 10843 10842 10842 10843 10843 10843 10841 10839 10836 10835 10836 10836 10835 10834 10833 10832 10831 10830 10830 10830 10829 10828 10827 10827 10828 10829 10829 10828 10826 10823 10821 10819 10817 10815 10814 10812 10809 10808 10808 10803 10796 10791 10788 10786 10783 10779 10776
10674 10680 10686 10691 10700 10713 10722 10727 10732 10736 10740 10744 10748 10752 10760 10770 10778 10783 10787 10794 10799 10803 10805 10806 10808 10810 10814 10818 10821 10823 10826 10826 10825 10826 10826 10827 10828 10830 10833 10835 10834 10834 10834 10834 10834 10834 10833 10831 10828 10827 10827 10827 10827 10827 10826 10825 10823 10823 10823 10823 10822 10820 10818 10818 10820 10821 10821 10819 10817 10814 10812 10810 10808 10806 10805 10802 10800 10798 10796 10791 10785 10782 10780 10778 10775 10771 10767
10665 10672 10679 10684 10692 10704 10713 10719 10724 10728 10731 10734 10737 10742 10753 10764 10770 10773 10778 10785 10790 10793 10796 10798 10800 10803 10807 10810 10812 10814 10816 10817 10817 10818 10819 10819 10821 10822 10824 10825 10825 10826 10826 10825 10826 10825 10824 10822 10821 10820 10820 10820 10819 10819 10818 10818 10817 10816 10816 10816 10814 10812 10810 10810 10811 10812 10811 10810 10807 10805 10803 10801 10799 10797 10796 10794 10790 10786 10783 10780 10777 10775 10772 10769 10767 10763 10759
10656 10664 10673 10679 10686 10697 10706 10711 10715 10718 10720 10725 10730 10739 10749 10757 10760 10763 10769 10776 10781 10785 10788 10790 10792 10794 10798 10800 10803 10805 10806 10806 10808 10810 10811 10811 10812 10813 10815 10816 10817 10818 10818 10817 10817 10816 10815 10814 10813 10813 10813 10812 10812 10812 10811 10811 10811 10810 10809 10808 10807 10805 10803 10802 10801 10801 10800 10799 10798 10795 10793 10791 10789 10787 10787 10786 10783 10778 10775 10773 10770 10767 10764 10761 10758 10755 10751
10648 10657 10666 10673 10680 10689 10697 10702 10706 10709 10714 10721 10727 10734 10741 10745 10750 10755 10761 10767 10772 10776 10778 10781 10784 10786 10789 10791 10793 10795 10797 10798 10800 10801 10802 10803 10804 10804 10806 10807 10808 10808 10809 10809 10809 10809 10807 10807 10806 10806 10805 10804 10804 10805 10804 10804 10804 10804 10802 10801 10799 10797 10795 10794 10792 10791 10790 10789 10787 10784 10782 10780 10779 10778 10777 10777 10775 10771 10767 10765 10762 10758 10755 10752 10749 10746 10743
10642 10650 10659 10667 10674 10680 10688 10694 10698 10703 10710 10717 10721 10725 10730 10735 10741 10746 10752 10758 10763 10766 10769 10773 10777 10779 10781 10782 10783 10786 10789 10791 10792 10792 10793 10794 10794 10795 10796 10798 10799 10800 10801 10802 10802 10802 10801 10800 10799 10798 10797 10796 10797 10797 10797 10797 10797 10796 10795 10793 10791 10789 10787 10785 10784 10783 10782 10780 10776 10774 10772 10770 10768 10767 10766 10766 10764 10761 10758 10755 10752 10748 10745 10742 10740 10737 10735
10636 10643 10653 10662 10669 10674 10680 10686 10690 10696 10703 10708 10713 10717 10721 10726 10733 10739 10744 10748 10753 10757 10761 10765 10769 10771 10772 10772 10775 10778 10780 10782 10783 10784 10784 10784 10784 10785 10787 10789 10792 10794 10796 10796 10796 10795 10793 10792 10791 10790 10789 10789 10790 10790 10790 10790 10790 10788 10787 10785 10782 10780 10777 10776 10775 10775 10773 10770 10767 10765 10763 10761 10759 10756 10754 10753 10751 10748 10746 10743 10741 10738 10735 10732 10730 10727 10725
10631 10639 10648 10658 10663 10667 10673 10678 10683 10690 10695 10700 10706 10710 10713 10719 10725 10731 10735 10740 10744 10749 10754 10758 10761 10762 10763 10765 10768 10770 10772 10773 10773 10774 10775 10776 10777 10778 10780 10782 10784 10788 10789 10790 10790 10788 10785 10783 10783 10782 10781 10781 10782 10784 10784 10782 10781 10780 10778 10775 10772 10770 10768 10767 10766 10765 10763 10760 10758 10756 10754 10751 10748 10746 10743 10741 10738 10736 10733 10731 10729 10727 10725 10723 10720 10718 10715
10628 10636 10645 10652 10656 10660 10665 10671 10677 10683 10688 10692 10698 10702 10706 10712 10718 10723 10728 10733 10737 10741 10745 10750 10752 10753 10755 10757 10760 10762 10763 10764 10765 10766 10768 10770 10771 10773 10773 10775 10777 10780 10781 10781 10781 10780 10778 10776 10774 10774 10775 10775 10776 10776 10775 10774 10773 10772 10768 10765 10763 10762 10760 10759 10757 10755 10753 10750 10748 10746 10743 10741 10739 10736 10734 10731 10729 10727 10724 10721 10719 10717 10716 10714 10712 10709 10706
10625 10631 10639 10646 10650 10654 10658 10664 10669 10675 10680 10684 10690 10695 10699 10704 10710 10715 10720 10726 10730 10733 10737 10741 10743 10744 10747 10749 10752 10754 10755 10756 10758 10761 10762 10763 10765 10765 10765 10766 10769 10770 10770 10770 10770 10770 10770 10768 10767 10767 10769 10769 10769 10768 10766 10765 10765 10763 10759 10756 10756 10754 10752 10750 10749 10746 10743 10741 10738 10737 10735 10733 10730 10728 10725 10723 10721 10718 10715 10712 10710 10708 10706 10703 10701 10699 10696
10621 10626 10633 10641 10646 10650 10653 10657 10662 10668 10672 10677 10682 10688 10692 10697 10702 10707 10712 10718 10723 10726 10729 10732 10734 10737 10739 10741 10743 10745 10747 10749 10751 10753 10754 10756 10756 10756 10756 10757 10759 10759 10760 10760 10761 10761 10760 10759 10759 10760 10761 10762 10762 10760 10758 10757 10756 10753 10750 10749 10747 10745 10743 10742 10740 10737 10735 10732 10730 10728 10726 10724 10721 10719 10716 10714 10712 10709 10706 10703 10701 10699 10696 10694 10691 10689 10686
10618 10624 10630 10636 10642 10646 10649 10653 10657 10661 10665 10670 10675 10680 10684 10689 10694 10699 10705 10710 10715 10718 10721 10724 10726 10729 10731 10732 10734 10736 10739 10741 10743 10744 10746 10747 10747 10747 10747 10748 10748 10749 10750 10750 10751 10751 10751 10751 10751 10752 10753 10754 10754 10753 10752 10750 10746 10744 10742 10741 10739 10736 10735 10733 10730 10728 10725 10723 10721 10718 10716 10714 10711 10709 10707 10704 10702 10700 10697 10694 10691 10689 10687 10684 10682 10679 10677
10616 10622 10627 10632 10638 10644 10647 10650 10653 10656 10660 10665 10669 10672 10676 10681 10687 10692 10697 10702 10706 10710 10714 10716 10718 10720 10723 10724 10726 10728 10730 10732 10733 10735 10736 10736 10737 10737 10738 10738 10739 10740 10740 10741 10742 10743 10743 10744 10745 10746 10746 10746 10745 10745 10744 10741 10738 10736 10735 10732 10730 10728 10726 10723 10721 10719 10716 10714 10711 10709 10706 10704 10701 10699 10697 10694 10692 10690 10687 10684 10681 10679 10677 10674 10672 10669 10666
10611 10617 10622 10628 10634 10639 10644 10648 10651 10654 10658 10662 10665 10668 10671 10675 10680 10685 10689 10694 10698 10703 10707 10708 10710 10712 10714 10716 10718 10719 10721 10723 10724 10725 10725 10726 10727 10728 10729 10730 10730 10730 10731 10732 10733 10735 10736 10737 10738 10738 10739 10738 10736 10736 10735 10733 10730 10728 10726 10723 10720 10719 10717 10714 10712 10709 10706 10704 10701 10698 10696 10693 10691 10688 10686 10684 10681 10679 10676 10673 10670 10668 10665 10663 10660 10657 10654
10606 10612 10618 10623 10628 10633 10639 10644 10647 10650 10654 10658 10661 10664 10667 10670 10674 10679 10682 10686 10691 10696 10699 10700 10701 10702 10705 10708 10710 10711 10713 10714 10715 10715 10716 10717 10718 10719 10720 10721 10721 10721 10722 10724 10726 10728 10729 10729 10729 10730 10730 10729 10727 10727 10726 10724 10721 10719 10716 10713 10711 10709 10706 10704 10701 10698 10695 10693 10690 10687 10685 10682 10680 10678 10675 10672 10670 10667 10664 10661 10659 10656 10654 10651 10648 10645 10643
10601 10607 10611 10616 10621 10627 10633 10637 10641 10644 10648 10652 10656 10660 10663 10666 10670 10674 10676 10679 10683 10687 10690 10692 10692 10693 10695 10699 10701 10702 10703 10704 10705 10706 10707 10709 10710 10712 10712 10713 10713 10713 10714 10716 10718 10719 10720 10720 10720 10720 10720 10719 10718 10718 10717 10714 10712 10709 10707 10704 10701 10698 10696 10693 10690 10687 10684 10681 10678 10675 10673 10671 10669 10667 10664 10661 10659 10656 10653 10651 10648 10646 10643 10640 10637 10635 10632
10596 10601 10605 10610 10615 10620 10625 10630 10633 10636 10640 10644 10648 10652 10656 10660 10663 10666 10669 10672 10675 10677 10680 10682 10683 10684 10686 10689 10691 10692 10694 10695 10697 10699 10700 10701 10703 10704 10705 10705 10705 10706 10706 10708 10710 10711 10712 10712 10711 10710 10710 10709 10708 10707 10706 10704 10702 10699 10696 10694 10691 10688 10685 10683 10680 10677 10674 10670 10666 10664 10662 10660 10658 10656 10653 10650 10647 10645 10642 10640 10638 10635 10633 10629 10626 10623 10619
10590 10595 10600 10605 10609 10614 10619 10623 10627 10630 10634 10637 10641 10645 10648 10652 10655 10658 10661 10664 10666 10667 10670 10672 10674 10675 10678 10680 10682 10684 10686 10688 10690 10692 10693 10694 10695 10695 10696 10697 10697 10698 10699 10699 10701 10702 10703 10703 10702 10701 10700 10700 10699 10697 10695 10693 10691 10688 10686 10683 10680 10677 10675 10672 10669 10667 10663 10660 10656 10653 10652 10650 10647 10644 10641 10639 10636 10633 10631 10629 10626 10624 10620 10617 10613 10611 10607
10587 10591 10596 10600 10603 10608 10612 10616 10621 10625 10629 10632 10635 10638 10641 10645 10648 10651 10653 10655 10657 10658 10660 10663 10665 10667 10670 10672 10674 10676 10678 10680 10682 10684 10685 10686 10686 10687 10688 10688 10689 10690 10690 10691 10691 10692 10693 10693 10692 10691 10690 10689 10688 10686 10683 10681 10680 10677 10675 10672 10670 10667 10664 10662 10659 10656 10653 10649 10646 10644 10643 10640 10638 10635 10632 10629 10626 10623 10621 10618 10615 10612 10609 10605 10601 10598 10596
10584 10589 10593 10595 10597 10600 10604 10609 10614 10619 10623 10626 10629 10631 10633 10636 10640 10643 10645 10647 10648 10650 10651 10654 10656 10659 10662 10664 10666 10668 10670 10672 10674 10676 10677 10678 10679 10679 10680 10681 10682 10682 10682 10682 10682 10682 10682 10682 10681 10681 10679 10677 10675 10674 10672 10670 10668 10666 10664 10662 10660 10657 10654 10651 10648 10646 10643 10640 10637 10636 10633 10631 10628 10626 10623 10620 10616 10613 10610 10607 10604 10600 10597 10593 10590 10586 10584
10579 10584 10587 10589 10590 10592 10596 10602 10607 10610 10613 10616 10619 10621 10624 10628 10631 10634 10635 10637 10639 10641 10643 10645 10648 10651 10653 10655 10657 10659 10661 10663 10665 10668 10670 10671 10672 10673 10673 10673 10674 10673 10673 10673 10673 10672 10672 10671 10670 10670 10669 10666 10664 10662 10660 10658 10656 10654 10653 10652 10650 10647 10643 10641 10638 10635 10632 10630 10628 10626 10624 10621 10619 10616 10613 10609 10605 10602 10599 10596 10592 10589 10585 10582 10578 10575 10572
10570 10574 10577 10580 10583 10586 10591 10596 10599 10601 10604 10608 10611 10613 10617 10621 10623 10625 10626 10629 10631 10633 10635 10637 10639 10641 10644 10646 10649 10651 10654 10656 10658 10660 10663 10664 10665 10666 10665 10665 10664 10664 10664 10663 10662 10662 10661 10660 10660 10660 10659 10656 10653 10652 10650 10647 10645 10643 10641 10641 10639 10635 10632 10630 10628 10625 10622 10619 10617 10615 10613 10610 10607 10604 10601 10597 10594 10591 10588 10585 10581 10577 10574 10571 10567 10564 10560
10562 10566 10570 10574 10578 10582 10586 10590 10592 10595 10599 10603 10605 10607 10609 10611 10614 10617 10619 10621 10623 10625 10627 10629 10631 10634 10636 10639 10642 10644 10647 10649 10650 10652 10654 10655 10657 10657 10657 10656 10655 10654 10654 10653 10652 10651 10650 10649 10649 10650 10648 10645 10643 10642 10639 10637 10634 10631 10630 10629 10627 10624 10621 10619 10617 10614 10610 10607 10605 10602 10600 10597 10594 10590 10588 10586 10583 10580 10577 10573 10569 10566 10563 10560 10557 10553 10549
10557 10561 10565 10569 10572 10575 10579 10582 10585 10587 10590 10593 10595 10596 10598 10601 10605 10609 10612 10614 10615 10617 10620 10622 10625 10627 10630 10633 10636 10638 10639 10640 10642 10643 10645 10646 10647 10648 10648 10647 10645 10644 10644 10643 10642 10640 10638 10637 10637 10638 10636 10634 10632 10630 10628 10626 10622 10620 10618 10617 10615 10612 10610 10608 10605 10601 10598 10595 10593 10590 10587 10583 10580 10578 10577 10575 10572 10569 10566 10562 10559 10556 10552 10549 10546 10542 10538
10552 10556 10560 10563 10566 10569 10572 10575 10577 10579 10581 10583 10586 10587 10590 10594 10599 10603 10605 10607 10609 10612 10614 10617 10620 10622 10624 10627 10628 10630 10631 10632 10633 10634 10636 10637 10637 10637 10637 10636 10635 10635 10634 10633 10632 10629 10627 10625 10625 10625 10624 10622 10620 10618 10617 10615 10611 10608 10607 10606 10603 10600 10598 10595 10592 10589 10586 10583 10581 10578 10574 10570 10569 10568 10567 10564 10561 10558 10555 10552 10548 10545 10541 10537 10533 10529 10525
10546 10550 10553 10556 10559 10561 10564 10567 10569 10571 10572 10575 10578 10582 10585 10589 10593 10596 10598 10601 10603 10606 10609 10611 10614 10616 10618 10619 10621 10622 10623 10623 10624 10625 10626 10627 10627 10626 10625 10625 10625 10625 10624 10623 10622 10620 10617 10615 10613 10613 10612 10610 10608 10606 10604 10604 10601 10597 10595 10593 10591 10589 10586 10582 10579 10577 10574 10572 10569 10566 10562 10559 10558 10558 10556 10553 10550 10547 10544 10541 10537 10533 10529 10525 10521 10517 10512
10540 10543 10546 10550 10553 10555 10558 10561 10563 10565 10567 10570 10574 10577 10581 10584 10587 10589 10592 10595 10597 10600 10602 10605 10607 10609 10611 10612 10613 10614 10615 10615 10615 10616 10617 10617 10618 10617 10616 10615 10615 10615 10614 10613 10611 10610 10608 10606 10604 10602 10600 10598 10597 10594 10592 10592 10590 10586 10582 10581 10579 10576 10573 10570 10568 10566 10563 10560 10557 10554 10551 10549 10547 10545 10543 10540 10538 10535 10532 10528 10524 10520 10516 10512 10508 10504 10500
10534 10537 10541 10545 10548 10551 10553 10556 10558 10561 10563 10566 10569 10572 10575 10577 10581 10584 10586 10589 10591 10593 10596 10598 10600 10602 10603 10604 10605 10606 10606 10606 10606 10607 10607 10608 10608 10607 10607 10606 10606 10605 10604 10603 10601 10600 10598 10596 10594 10592 10589 10587 10585 10583 10581 10581 10579 10575 10572 10570 10567 10564 10562 10561 10558 10555 10552 10550 10547 10544 10542 10539 10536 10533 10530 10527 10524 10521 10518 10514 10510 10506 10502 10499 10495 10491 10488
10528 10532 10537 10541 10544 10546 10548 10550 10553 10555 10558 10560 10563 10565 10568 10570 10573 10576 10579 10581 10584 10586 10589 10590 10592 10593 10595 10596 10596 10597 10597 10598 10598 10598 10599 10599 10598 10597 10597 10597 10596 10595 10593 10592 10590 10589 10588 10586 10584 10582 10580 10578 10576 10573 10572 10571 10569 10566 10563 10560 10557 10554 10554 10552 10549 10544 10541 10538 10536 10533 10529 10526 10523 10520 10516 10513 10510 10507 10503 10500 10497 10493 10490 10486 10483 10480 10477
10524 10529 10532 10535 10538 10540 10542 10545 10547 10549 10551 10554 10556 10558 10561 10563 10566 10569 10572 10574 10577 10579 10581 10582 10584 10585 10586 10587 10588 10588 10588 10589 10589 10590 10590 10590 10589 10588 10588 10587 10586 10584 10583 10581 10580 10579 10578 10576 10574 10572 10570 10569 10566 10564 10562 10562 10560 10558 10555 10552 10549 10546 10545 10543 10539 10535 10531 10528 10524 10521 10517 10514 10510 10507 10503 10500 10497 10494 10491 10488 10485 10482 10478 10475 10472 10470 10467
10519 10523 10526 10528 10531 10533 10536 10538 10540 10542 10545 10547 10550 10552 10554 10557 10559 10562 10564 10567 10569 10571 10573 10574 10575 10576 10577 10578 10578 10579 10579 10579 10580 10580 10580 10580 10579 10578 10578 10577 10575 10574 10573 10571 10570 10569 10567 10566 10564 10562 10561 10559 10557 10555 10554 10553 10551 10549 10547 10544 10541 10538 10535 10533 10529 10526 10522 10519 10516 10512 10508 10504 10501 10497 10493 10490 10487 10484 10480 10477 10474 10471 10468 10465 10463 10461 10458
10513 10516 10519 10522 10524 10527 10529 10531 10533 10535 10538 10540 10543 10545 10548 10550 10553 10555 10557 10559 10561 10562 10564 10565 10566 10567 10567 10568 10569 10569 10570 10570 10570 10570 10570 10569 10569 10568 10568 10566 10565 10564 10563 10561 10560 10559 10558 10556 10554 10553 10551 10550 10548 10546 10545 10543 10542 10540 10538 10535 10532 10529 10526 10523 10520 10516 10513 10510 10506 10502 10498 10494 10490 10486 10483 10480 10477 10473 10470 10467 10464 10461 10459 10456 10454 10452 10450
10509 10512 10514 10516 10519 10521 10522 10524 10527 10529 10531 10534 10537 10539 10541 10544 10546 10548 10550 10551 10552 10554 10555 10556 10557 10558 10559 10559 10560 10560 10560 10560 10560 10560 10560 10559 10558 10558 10557 10556 10555 10554 10553 10552 10551 10549 10548 10547 10545 10544 10542 10540 10538 10536 10534 10533 10531 10529 10527 10524 10521 10518 10515 10512 10509 10506 10503 10499 10495 10491 10486 10482 10478 10475 10472 10469 10466 10463 10460 10458 10455 10453 10451 10448 10446 10444 10442
10505 10507 10509 10511 10513 10515 10516 10518 10521 10524 10527 10529 10532 10534 10536 10538 10539 10541 10542 10543 10544 10546 10547 10548 10549 10549 10550 10550 10550 10550 10550 10550 10550 10550 10550 10549 10548 10548 10548 10547 10546 10545 10544 10543 10542 10540 10539 10537 10535 10533 10532 10530 10528 10526 10524 10522 10520 10518 10515 10513 10510 10507 10504 10501 10498 10495 10491 10487 10483 10478 10474 10470 10467 10465 10462 10459 10456 10454 10451 10449 10446 10444 10442 10440 10438 10436 10434
10499 10502 10504 10506 10507 10509 10510 10512 10516 10519 10521 10523 10526 10528 10529 10531 10532 10533 10535 10536 10537 10538 10539 10539 10540 10540 10541 10541 10541 10541 10541 10540 10540 10540 10540 10540 10539 10539 10538 10538 10537 10536 10535 10534 10532 10531 10529 10527 10525 10523 10522 10520 10518 10515 10513 10511 10508 10506 10504 10501 10498 10495 10492 10489 10485 10482 10478 10475 10471 10467 10463 10460 10457 10455 10452 10450 10447 10445 10443 10440 10438 10436 10434 10432 10431 10429 10427
10494 10496 10497 10499 10501 10503 10504 10507 10510 10513 10515 10517 10519 10521 10522 10524 10525 10526 10527 10528 10529 10530 10530 10531 10531 10531 10531 10531 10531 10531 10531 10531 10530 10530 10530 10530 10530 10529 10528 10527 10527 10525 10524 10523 10522 10520 10519 10517 10515 10513 10512 10510 10507 10505 10502 10500 10498 10495 10492 10490 10487 10483 10480 10477 10473 10469 10466 10463 10460 10457 10453 10450 10447 10445 10443 10441 10439 10438 10436 10433 10431 10429 10426 10425 10424 10423 10421
10489 10490 10492 10494 10496 10498 10500 10502 10504 10507 10509 10511 10512 10513 10515 10516 10518 10519 10520 10520 10521 10521 10521 10522 10522 10522 10521 10521 10521 10521 10521 10521 10520 10520 10520 10520 10519 10518 10517 10517 10516 10515 10513 10512 10511 10509 10508 10506 10504 10503 10501 10498 10496 10494 10491 10489 10486 10483 10481 10477 10474 10471 10467 10464 10461 10458 10455 10452 10449 10446 10444 10441 10439 10437 10435 10434 10432 10431 10429 10427 10425 10423 10421 10419 10417 10416 10415
10483 10485 10487 10488 10490 10493 10495 10497 10498 10500 10502 10504 10505 10506 10508 10509 10510 10511 10511 10511 10512 10512 10512 10512 10512 10512 10512 10511 10511 10511 10511 10510 10510 10510 10510 10510 10509 10508 10507 10506 10505 10504 10503 10501 10500 10499 10497 10495 10493 10491 10489 10487 10484 10481 10479 10476 10473 10471 10468 10464 10461 10458 10455 10452 10449 10446 10444 10441 10439 10437 10435 10433 10431 10429 10428 10426 10425 10424 10422 10421 10419 10418 10416 10414 10412 10410 10409
10478 10480 10481 10483 10485 10487 10489 10491 10492 10494 10495 10497 10498 10499 10500 10501 10501 10502 10502 10503 10503 10503 10503 10503 10503 10503 10503 10502 10502 10502 10501 10501 10500 10500 10500 10499 10499 10497 10496 10495 10494 10493 10491 10490 10489 10487 10486 10484 10481 10479 10477 10474 10471 10469 10466 10463 10460 10457 10455 10452 10449 10446 10443 10441 10438 10436 10434 10431 10429 10428 10426 10424 10423 10422 10420 10419 10417 10416 10415 10414 10413 10411 10410 10408 10406 10405 10403
10473 10474 10476 10477 10479 10481 10483 10485 10486 10487 10489 10490 10491 10491 10492 10492 10493 10493 10493 10494 10494 10494 10494 10494 10494 10494 10494 10494 10493 10493 10492 10492 10491 10490 10489 10489 10488 10487 10485 10484 10483 10481 10480 10479 10478 10476 10474 10472 10470 10467 10465 10463 10460 10457 10454 10451 10448 10445 10443 10440 10437 10435 10432 10430 10429 10427 10425 10423 10421 10420 10418 10417 10416 10414 10413 10412 10410 10409 10408 10407 10406 10405 10404 10402 10401 10399 10398
10467 10469 10470 10472 10474 10475 10477 10479 10480 10481 10482 10483 10484 10484 10484 10484 10484 10484 10484 10485 10485 10485 10485 10485 10485 10485 10484 10484 10484 10483 10483 10482 10481 10480 10478 10477 10476 10475 10474 10473 10472 10470 10469 10467 10466 10464 10462 10460 10458 10456 10453 10451 10448 10445 10442 10439 10437 10434 10431 10429 10427 10425 10423 10421 10420 10419 10417 10416 10414 10413 10411 10410 10409 10407 10406 10405 10403 10402 10401 10400 10399 10398 10397 10396 10395 10394 10392
10461 10463 10465 10466 10468 10469 10471 10472 10473 10474 10475 10475 10476 10476 10476 10476 10475 10475 10475 10475 10475 10475 10475 10475 10475 10475 10475 10474 10474 10473 10472 10471 10470 10469 10468 10466 10464 10463 10462 10461 10460 10459 10457 10455 10453 10451 10449 10447 10445 10443 10440 10438 10435 10432 10430 10427 10425 10423 10421 10419 10417 10416 10414 10413 10412 10411 10410 10409 10408 10406 10405 10404 10402 10401 10399 10398 10396 10395 10394 10393 10392 10391 10390 10389 10388 10387 10386
10456 10457 10459 10460 10461 10462 10464 10465 10465 10466 10466 10467 10467 10467 10467 10467 10466 10466 10466 10466 10466 10466 10465 10465 10465 10465 10464 10464 10463 10463 10462 10461 10460 10458 10457 10455 10453 10452 10450 10449 10447 10446 10445 10443 10441 10438 10436 10434 10432 10430 10427 10425 10422 10420 10417 10415 10413 10412 10410 10409 10408 10407 10406 10405 10404 10403 10402 10401 10400 10399 10398 10397 10396 10394 10393 10391 10390 10389 10387 10386 10385 10384 10382 10381 10380 10379 10378